TAR1568 DTTJ-DTTA

Flight info

Callsign TAR1568
Flight time 0h 35m
Altitude 24000
Route BISKO1A BISKO A411 TUC
Aircraft A343/H-SDE2E3FGHIJ4J5M1RWXY/LB1D1

Departure

Time 2026-05-08 14:38
Airport Djerba Zarzis International Airport (DTTJ)

Arrival

Time 2026-05-08 15:13
Airport Tunis Carthage International Airport (DTTA)
Time Latitude Longitude Altitude Speed Heading
2026-05-08 14:09 33.87247 10.77379 31 ft 0 kts 132°
2026-05-08 14:29 33.87250 10.77376 30 ft 2 kts 132°
2026-05-08 14:29 33.87263 10.77359 31 ft 3 kts 132°
2026-05-08 14:30 33.87276 10.77341 31 ft 3 kts 132°
2026-05-08 14:30 33.87290 10.77322 30 ft 3 kts 132°
2026-05-08 14:30 33.87299 10.77310 31 ft 3 kts 132°
2026-05-08 14:30 33.87313 10.77290 31 ft 3 kts 85°
2026-05-08 14:31 33.87306 10.77276 31 ft 2 kts 30°
2026-05-08 14:31 33.87297 10.77269 31 ft 2 kts 26°
2026-05-08 14:31 33.87279 10.77258 31 ft 3 kts 26°
2026-05-08 14:32 33.87264 10.77249 31 ft 0 kts 26°
2026-05-08 14:34 33.87275 10.77254 31 ft 4 kts 19°
2026-05-08 14:34 33.87313 10.77247 31 ft 9 kts 349°
2026-05-08 14:34 33.87372 10.77217 31 ft 6 kts 309°
2026-05-08 14:35 33.87371 10.77187 31 ft 5 kts 263°
2026-05-08 14:35 33.87365 10.77130 31 ft 9 kts 264°
2026-05-08 14:35 33.87361 10.77036 31 ft 13 kts 269°
2026-05-08 14:35 33.87358 10.76910 30 ft 18 kts 268°
2026-05-08 14:36 33.87353 10.76740 26 ft 23 kts 268°
2026-05-08 14:36 33.87348 10.76538 25 ft 25 kts 268°
2026-05-08 14:36 33.87343 10.76347 28 ft 23 kts 268°
2026-05-08 14:36 33.87340 10.76144 20 ft 25 kts 274°
2026-05-08 14:37 33.87450 10.76055 24 ft 18 kts
2026-05-08 14:37 33.87503 10.76126 27 ft 11 kts 78°
2026-05-08 14:37 33.87510 10.76290 25 ft 45 kts 89°
2026-05-08 14:37 33.87525 10.76946 23 ft 109 kts 88°
2026-05-08 14:38 33.87553 10.78069 40 ft 158 kts 86°
2026-05-08 14:38 33.87589 10.79427 620 ft 163 kts 85°
2026-05-08 14:38 33.87661 10.80798 1223 ft 174 kts 82°
2026-05-08 14:38 33.88105 10.82232 1668 ft 193 kts 63°
2026-05-08 14:39 33.88977 10.83606 2054 ft 225 kts 39°
2026-05-08 14:39 33.90532 10.84217 2628 ft 252 kts 359°
2026-05-08 14:39 33.92288 10.83827 3483 ft 262 kts 345°
2026-05-08 14:39 33.94072 10.83230 4359 ft 270 kts 345°
2026-05-08 14:40 33.95919 10.82632 5220 ft 280 kts 346°
2026-05-08 14:40 33.97833 10.82038 6104 ft 287 kts 345°
2026-05-08 14:40 33.99794 10.81440 7023 ft 293 kts 345°
2026-05-08 14:40 34.01756 10.80856 8000 ft 295 kts 343°
2026-05-08 14:41 34.03741 10.80272 9070 ft 293 kts 342°
2026-05-08 14:41 34.05714 10.79696 10139 ft 291 kts 342°
2026-05-08 14:41 34.07726 10.79103 10761 ft 307 kts 342°
2026-05-08 14:41 34.09872 10.78467 11164 ft 327 kts 342°
2026-05-08 14:42 34.12135 10.77801 11712 ft 340 kts 342°
2026-05-08 14:42 34.14458 10.77122 12438 ft 346 kts 342°
2026-05-08 14:42 34.16818 10.76434 13223 ft 351 kts 342°
2026-05-08 14:42 34.19169 10.75748 13980 ft 355 kts 342°
2026-05-08 14:43 34.21583 10.75040 14763 ft 359 kts 342°
2026-05-08 14:43 34.24016 10.74328 15574 ft 361 kts 342°
2026-05-08 14:43 34.26467 10.73610 16370 ft 364 kts 342°
2026-05-08 14:43 34.28953 10.72932 17115 ft 369 kts 346°
2026-05-08 14:44 34.31517 10.72510 17839 ft 374 kts 350°
2026-05-08 14:44 34.34125 10.72258 18578 ft 378 kts 352°
2026-05-08 14:44 34.36770 10.72086 19261 ft 383 kts 353°
2026-05-08 14:44 34.39445 10.71941 19892 ft 387 kts 353°
2026-05-08 14:45 34.42150 10.71791 20492 ft 392 kts 353°
2026-05-08 14:45 34.44840 10.71629 21106 ft 395 kts 352°
2026-05-08 14:45 34.47603 10.71450 21719 ft 398 kts 352°
2026-05-08 14:45 34.50373 10.71219 22305 ft 401 kts 351°
2026-05-08 14:46 34.53163 10.70925 22877 ft 404 kts 350°
2026-05-08 14:46 34.55974 10.70603 23420 ft 407 kts 350°
2026-05-08 14:46 34.58811 10.70276 23834 ft 412 kts 350°
2026-05-08 14:46 34.61680 10.69951 23960 ft 417 kts 350°
2026-05-08 14:47 34.64589 10.69631 23963 ft 421 kts 350°
2026-05-08 14:47 34.67470 10.69322 23967 ft 422 kts 350°
2026-05-08 14:47 34.70400 10.69036 23950 ft 423 kts 353°
2026-05-08 14:47 34.73356 10.69044 23959 ft 425 kts 356°
2026-05-08 14:48 34.76315 10.69158 23962 ft 426 kts 358°
2026-05-08 14:48 34.79275 10.69323 23966 ft 426 kts 358°
2026-05-08 14:48 34.82242 10.69517 23966 ft 427 kts 358°
2026-05-08 14:48 34.85197 10.69719 23962 ft 426 kts 358°
2026-05-08 14:49 34.88159 10.69921 23970 ft 426 kts 358°
2026-05-08 14:49 34.91125 10.70118 23972 ft 426 kts 358°
2026-05-08 14:49 34.94044 10.70308 23971 ft 426 kts 358°
2026-05-08 14:49 34.97011 10.70497 23971 ft 426 kts 358°
2026-05-08 14:50 34.99972 10.70676 23972 ft 426 kts 358°
2026-05-08 14:50 35.02939 10.70835 23971 ft 426 kts 357°
2026-05-08 14:50 35.05902 10.70987 23971 ft 426 kts 357°
2026-05-08 14:50 35.08860 10.71137 23971 ft 426 kts 357°
2026-05-08 14:51 35.11823 10.71288 23971 ft 426 kts 357°
2026-05-08 14:51 35.14784 10.71442 23972 ft 426 kts 357°
2026-05-08 14:51 35.17747 10.71601 23972 ft 426 kts 357°
2026-05-08 14:51 35.20671 10.71759 23972 ft 426 kts 357°
2026-05-08 14:52 35.23633 10.71919 23970 ft 426 kts 357°
2026-05-08 14:52 35.29564 10.72238 23982 ft 426 kts 357°
2026-05-08 14:52 35.32526 10.72398 23981 ft 426 kts 357°
2026-05-08 14:53 35.35488 10.72558 23980 ft 426 kts 357°
2026-05-08 14:53 35.38449 10.72717 23979 ft 427 kts 357°
2026-05-08 14:53 35.41420 10.72878 23980 ft 427 kts 357°
2026-05-08 14:53 35.44343 10.73036 23981 ft 426 kts 357°
2026-05-08 14:54 35.47307 10.73203 23981 ft 426 kts 357°
2026-05-08 14:54 35.50266 10.73373 23989 ft 426 kts 357°
2026-05-08 14:54 35.53228 10.73544 23803 ft 425 kts 357°
2026-05-08 14:54 35.56161 10.73715 23303 ft 420 kts 357°
2026-05-08 14:55 35.59077 10.73884 22694 ft 419 kts 357°
2026-05-08 14:55 35.61985 10.74052 22129 ft 416 kts 357°
2026-05-08 14:55 35.64802 10.74216 21601 ft 413 kts 357°
2026-05-08 14:55 35.67657 10.74381 21062 ft 410 kts 357°
2026-05-08 14:56 35.70498 10.74543 20529 ft 406 kts 357°
2026-05-08 14:56 35.73271 10.74664 20006 ft 400 kts 353°
2026-05-08 14:56 35.75991 10.74268 19487 ft 389 kts 341°
2026-05-08 14:56 35.78572 10.73399 18964 ft 382 kts 337°
2026-05-08 14:57 35.81076 10.72361 18489 ft 377 kts 335°
2026-05-08 14:57 35.83517 10.71240 17977 ft 372 kts 333°
2026-05-08 14:57 35.85921 10.70089 17490 ft 368 kts 333°
2026-05-08 14:57 35.88294 10.68942 17006 ft 365 kts 333°
2026-05-08 14:58 35.90622 10.67823 16529 ft 362 kts 333°
2026-05-08 14:58 35.92963 10.66706 16044 ft 359 kts 333°
2026-05-08 14:58 35.95289 10.65608 15544 ft 357 kts 334°
2026-05-08 14:58 35.97595 10.64525 15080 ft 353 kts 334°
2026-05-08 14:59 35.99885 10.63452 14599 ft 351 kts 334°
2026-05-08 14:59 36.04422 10.61324 13644 ft 346 kts 333°
2026-05-08 14:59 36.06665 10.60270 13173 ft 344 kts 333°
2026-05-08 15:00 36.08894 10.59227 12704 ft 341 kts 333°
2026-05-08 15:00 36.11107 10.58191 12232 ft 339 kts 333°
2026-05-08 15:00 36.13276 10.57174 11778 ft 336 kts 333°
2026-05-08 15:00 36.15457 10.56151 11372 ft 335 kts 334°
2026-05-08 15:01 36.17732 10.55068 11309 ft 367 kts 334°
2026-05-08 15:01 36.20191 10.53890 11328 ft 383 kts 334°
2026-05-08 15:01 36.22594 10.52752 11094 ft 354 kts 334°
2026-05-08 15:01 36.24776 10.51747 10873 ft 316 kts 334°
2026-05-08 15:02 36.26756 10.50841 10636 ft 296 kts 334°
2026-05-08 15:02 36.28673 10.49945 10412 ft 295 kts 333°
2026-05-08 15:02 36.30572 10.49042 10187 ft 289 kts 333°
2026-05-08 15:02 36.32411 10.48151 9975 ft 285 kts 333°
2026-05-08 15:03 36.34216 10.47274 9441 ft 277 kts 332°
2026-05-08 15:03 36.36046 10.46378 8720 ft 288 kts 333°
2026-05-08 15:03 36.37881 10.45381 8340 ft 285 kts 326°
2026-05-08 15:03 36.39509 10.44045 8121 ft 276 kts 321°
2026-05-08 15:04 36.41050 10.42659 7584 ft 271 kts 320°
2026-05-08 15:04 36.42512 10.41310 7130 ft 260 kts 320°
2026-05-08 15:04 36.43917 10.40003 6823 ft 247 kts 320°
2026-05-08 15:04 36.45318 10.38684 6620 ft 258 kts 320°
2026-05-08 15:05 36.46756 10.37328 6546 ft 258 kts 320°
2026-05-08 15:05 36.48185 10.35982 6240 ft 258 kts 320°
2026-05-08 15:05 36.49613 10.34632 5885 ft 257 kts 321°
2026-05-08 15:05 36.51038 10.33287 5582 ft 257 kts 321°
2026-05-08 15:06 36.52458 10.31942 5245 ft 257 kts 321°
2026-05-08 15:06 36.53874 10.30598 4923 ft 256 kts 321°
2026-05-08 15:06 36.55294 10.29254 4582 ft 256 kts 322°
2026-05-08 15:06 36.56672 10.27950 4245 ft 247 kts 322°
2026-05-08 15:07 36.58017 10.26671 3725 ft 241 kts 322°
2026-05-08 15:07 36.59336 10.25422 3236 ft 234 kts 323°
2026-05-08 15:07 36.60634 10.24185 2830 ft 236 kts 323°
2026-05-08 15:07 36.61947 10.22941 2520 ft 238 kts 324°
2026-05-08 15:08 36.63280 10.21691 2215 ft 240 kts 326°
2026-05-08 15:08 36.64237 10.21024 2067 ft 237 kts 338°
2026-05-08 15:08 36.66387 10.20463 1999 ft 238 kts 356°
2026-05-08 15:08 36.68001 10.20297 2002 ft 232 kts 356°
2026-05-08 15:09 36.69572 10.20171 1995 ft 220 kts 356°
2026-05-08 15:09 36.71058 10.20060 1996 ft 210 kts 356°
2026-05-08 15:09 36.72472 10.19959 2012 ft 195 kts 356°
2026-05-08 15:09 36.73740 10.19941 1992 ft 169 kts
2026-05-08 15:10 36.74846 10.20023 1849 ft 153 kts
2026-05-08 15:10 36.75864 10.20233 1646 ft 144 kts
2026-05-08 15:10 36.76807 10.20473 1463 ft 132 kts
2026-05-08 15:10 36.77674 10.20685 1287 ft 123 kts
2026-05-08 15:11 36.78485 10.20902 1124 ft 120 kts
2026-05-08 15:11 36.79306 10.21127 974 ft 121 kts
2026-05-08 15:11 36.79453 10.21167 944 ft 122 kts
2026-05-08 15:11 36.80205 10.21369 796 ft 121 kts
2026-05-08 15:12 36.81026 10.21592 638 ft 122 kts
2026-05-08 15:12 36.81846 10.21824 485 ft 120 kts
2026-05-08 15:12 36.82672 10.22031 363 ft 122 kts
2026-05-08 15:12 36.83500 10.22259 166 ft 123 kts
2026-05-08 15:13 36.84337 10.22489 43 ft 122 kts 11°
2026-05-08 15:13 36.85066 10.22689 39 ft 85 kts 12°
2026-05-08 15:13 36.85474 10.22801 37 ft 41 kts 12°
2026-05-08 15:13 36.85749 10.22870 34 ft 39 kts 13°
2026-05-08 15:14 36.85964 10.22887 33 ft 20 kts 333°
2026-05-08 15:14 36.86030 10.22735 34 ft 19 kts 261°
2026-05-08 15:14 36.85952 10.22653 34 ft 13 kts 195°
2026-05-08 15:14 36.85858 10.22626 34 ft 15 kts 191°
2026-05-08 15:15 36.85753 10.22598 34 ft 16 kts 192°
2026-05-08 15:15 36.85638 10.22569 34 ft 18 kts 193°
2026-05-08 15:15 36.85511 10.22533 35 ft 20 kts 193°
2026-05-08 15:15 36.85373 10.22495 35 ft 21 kts 192°
2026-05-08 15:16 36.85231 10.22458 40 ft 20 kts 190°
2026-05-08 15:16 36.85087 10.22418 36 ft 23 kts 193°
2026-05-08 15:16 36.84938 10.22378 35 ft 21 kts 194°
2026-05-08 15:16 36.84788 10.22335 34 ft 23 kts 192°
2026-05-08 15:17 36.84628 10.22293 34 ft 24 kts 192°
2026-05-08 15:17 36.84456 10.22247 34 ft 26 kts 192°
2026-05-08 15:17 36.84319 10.22208 35 ft 20 kts 193°
2026-05-08 15:17 36.84181 10.22171 35 ft 21 kts 192°
2026-05-08 15:18 36.84030 10.22131 35 ft 23 kts 192°
2026-05-08 15:18 36.83899 10.22089 34 ft 18 kts 215°
2026-05-08 15:18 36.83893 10.21952 34 ft 17 kts 282°
2026-05-08 15:18 36.83924 10.21859 34 ft 9 kts 320°
2026-05-08 15:19 36.83973 10.21851 34 ft 5 kts 360°
2026-05-08 15:19 36.83997 10.21830 34 ft 2 kts 290°
2026-05-08 15:19 36.84001 10.21800 34 ft 7 kts 281°
2026-05-08 15:19 36.84008 10.21754 34 ft 6 kts 281°
2026-05-08 15:20 36.84017 10.21711 34 ft 1 kts 283°
2026-05-08 15:20 36.84020 10.21694 34 ft 0 kts 283°
2026-05-08 15:20 36.84020 10.21693 34 ft 0 kts 283°